Norman, Oklahoma, United States (73019)
Lat: 35.22N, Lon: 97.44W
Wx Zone: OKZ029
Local Info
Past Weather Observations for Today

NOTE: This archive is for the closest National Weather Service station to Norman. Information may differ from the station used for current weather conditions.

Click here for Long-term Archive

Time Weather Temperature Dewpoint Humidity Pressure Winds Precip Visibility
15:55
Clear
82°F / 28°C 68°F / 20°C 62% 29.89 in
(1012 mb)
SW 9.2 mph
(SW 15 kph)
- 10SM
15:35
Partly Cloudy
82°F / 28°C 68°F / 20°C 62% 29.89 in
(1012 mb)
SW 12.7 mph
(SW 20 kph)
- 10SM
15:15
Clear
82°F / 28°C 68°F / 20°C 62% 29.89 in
(1012 mb)
SW 11.5 mph
(SW 19 kph)
- 10SM
14:55
Partly Cloudy
81°F / 27°C 68°F / 20°C 66% 29.92 in
(1013 mb)
SSE 8.1 mph
(SSE 13 kph)
- 10SM
14:35
Partly Cloudy
81°F / 27°C 68°F / 20°C 66% 29.92 in
(1013 mb)
SW 10.4 mph
(SW 17 kph)
- 10SM
14:15
Partly Cloudy
79°F / 26°C 66°F / 19°C 65% 29.95 in
(1014 mb)
SSE 8.1 mph
(SSE 13 kph)
- 10SM
13:55
Clear
81°F / 27°C 68°F / 20°C 66% 29.95 in
(1014 mb)
SW 11.5 mph
(SW 19 kph)
- 10SM
13:35
Mostly Cloudy
81°F / 27°C 68°F / 20°C 66% 29.95 in
(1014 mb)
SSE 11.5 mph
(SSE 19 kph)
- 10SM
13:15
Mostly Cloudy
79°F / 26°C 68°F / 20°C 70% 29.95 in
(1014 mb)
SSE 10.4 mph
(SSE 17 kph)
- 10SM
12:55
Overcast
79°F / 26°C 68°F / 20°C 70% 29.95 in
(1014 mb)
SSE 6.9 mph
(SSE 11 kph)
- 10SM
12:35
Overcast
79°F / 26°C 68°F / 20°C 70% 29.98 in
(1015 mb)
S 11.5 mph
(S 19 kph)
- 10SM
12:15
Overcast
Light Rain
79°F / 26°C 68°F / 20°C 70% 29.98 in
(1015 mb)
S 11.5 mph
(S 19 kph)
- 10SM
11:55
Overcast
79°F / 26°C 68°F / 20°C 70% 29.98 in
(1015 mb)
S 10.4 mph
(S 17 kph)
- 10SM
11:35
Overcast
79°F / 26°C 66°F / 19°C 65% 29.98 in
(1015 mb)
S 10.4 mph
(S 17 kph)
- 10SM
11:15
Mostly Cloudy
81°F / 27°C 66°F / 19°C 62% 29.98 in
(1015 mb)
SW 6.9 mph
(SW 11 kph)
- 10SM
10:55
Partly Cloudy
79°F / 26°C 68°F / 20°C 70% 29.98 in
(1015 mb)
SW 11.5 mph
(SW 19 kph)
- 10SM
10:35
Partly Cloudy
79°F / 26°C 68°F / 20°C 70% 29.98 in
(1015 mb)
SW 6.9 mph
(SW 11 kph)
- 10SM
10:15
Overcast
75°F / 24°C 68°F / 20°C 78% 29.98 in
(1015 mb)
SSE 6.9 mph
(SSE 11 kph)
- 10SM
09:55
Mostly Cloudy
73°F / 23°C 68°F / 20°C 83% 29.98 in
(1015 mb)
SW 5.8 mph
(SW 9 kph)
- 10SM
09:35
Partly Cloudy
73°F / 23°C 68°F / 20°C 83% 29.98 in
(1015 mb)
SW 8.1 mph
(SW 13 kph)
- 10SM
09:15
Mostly Cloudy
73°F / 23°C 68°F / 20°C 83% 29.98 in
(1015 mb)
SW 6.9 mph
(SW 11 kph)
- 10SM
08:55
Mostly Cloudy
72°F / 22°C 66°F / 19°C 83% 29.98 in
(1015 mb)
SSE 9.2 mph
(SSE 15 kph)
- 10SM
08:35
Mostly Cloudy
72°F / 22°C 68°F / 20°C 88% 29.98 in
(1015 mb)
SW 5.8 mph
(SW 9 kph)
- 10SM
08:15
Mostly Cloudy
70°F / 21°C 66°F / 19°C 88% 29.98 in
(1015 mb)
SW 5.8 mph
(SW 9 kph)
- 10SM
07:55
Partly Cloudy
70°F / 21°C 66°F / 19°C 88% 29.98 in
(1015 mb)
S 5.8 mph
(S 9 kph)
- 10SM
07:35
Partly Cloudy
70°F / 21°C 68°F / 20°C 94% 29.95 in
(1014 mb)
S 5.8 mph
(S 9 kph)
- 10SM
07:15
Partly Cloudy
68°F / 20°C 68°F / 20°C 100% 29.95 in
(1014 mb)
S 6.9 mph
(S 11 kph)
- 10SM
06:55
Mostly Cloudy
68°F / 20°C 68°F / 20°C 100% 29.95 in
(1014 mb)
S 9.2 mph
(S 15 kph)
- 10SM
06:35
Mostly Cloudy
66°F / 19°C 66°F / 19°C 100% 29.95 in
(1014 mb)
S 4.6 mph
(S 7 kph)
- 10SM
06:15
Clear
64°F / 18°C 64°F / 18°C 100% 29.95 in
(1014 mb)
SSE 3.5 mph
(SSE 6 kph)
- 10SM
05:55
Clear
64°F / 18°C 64°F / 18°C 100% 29.95 in
(1014 mb)
SSE 3.5 mph
(SSE 6 kph)
- 10SM
05:35
Clear
64°F / 18°C 64°F / 18°C 100% 29.95 in
(1014 mb)
SSE 4.6 mph
(SSE 7 kph)
- 10SM
05:15
Clear
66°F / 19°C 66°F / 19°C 100% 29.92 in
(1013 mb)
SSE 4.6 mph
(SSE 7 kph)
- 10SM
04:55
Clear
64°F / 18°C 64°F / 18°C 100% 29.92 in
(1013 mb)
NE 3.5 mph
(NE 6 kph)
- 10SM
04:35
Clear
66°F / 19°C 66°F / 19°C 100% 29.92 in
(1013 mb)
Calm - 10SM
04:15
Clear
66°F / 19°C 66°F / 19°C 100% 29.92 in
(1013 mb)
NNW 3.5 mph
(NNW 6 kph)
- 10SM
03:55
Clear
66°F / 19°C 66°F / 19°C 100% 29.95 in
(1014 mb)
Calm - 10SM
03:35
Partly Cloudy
66°F / 19°C 66°F / 19°C 100% 29.95 in
(1014 mb)
Calm - 10SM
03:15
Partly Cloudy
66°F / 19°C 66°F / 19°C 100% 29.95 in
(1014 mb)
SSE 3.5 mph
(SSE 6 kph)
- 10SM
02:55
Partly Cloudy
66°F / 19°C 66°F / 19°C 100% 29.95 in
(1014 mb)
Calm - 10SM
02:35
Partly Cloudy
66°F / 19°C 66°F / 19°C 100% 29.95 in
(1014 mb)
NW 4.6 mph
(NW 7 kph)
- 10SM
02:15
Partly Cloudy
68°F / 20°C 68°F / 20°C 100% 29.95 in
(1014 mb)
W 5.8 mph
(W 9 kph)
- 10SM
01:55
Clear
66°F / 19°C 66°F / 19°C 100% 29.92 in
(1013 mb)
W 11.5 mph
(W 19 kph)
0.01 in
(0.25 mm)
10SM
01:35
Clear
68°F / 20°C 68°F / 20°C 100% 29.86 in
(1011 mb)
Calm 0.01 in
(0.25 mm)
10SM
01:15
Partly Cloudy
Light Rain
68°F / 20°C 68°F / 20°C 100% 29.89 in
(1012 mb)
E 6.9 mph
(E 11 kph)
0.01 in
(0.25 mm)
10SM
00:55
Mostly Cloudy
Rain
68°F / 20°C 68°F / 20°C 100% 29.92 in
(1013 mb)
SE 9.2 mph
(SE 15 kph)
0.01 in
(0.25 mm)
10SM
00:35
Partly Cloudy
Light Rain
68°F / 20°C 66°F / 19°C 94% 29.95 in
(1014 mb)
SSE 11.5 mph
(SSE 19 kph)
0.01 in
(0.25 mm)
10SM
00:15
Partly Cloudy
68°F / 20°C 66°F / 19°C 94% 29.95 in
(1014 mb)
S 11.5 mph
(S 19 kph)
- 10SM
Time Weather Temperature Dewpoint Humidity Pressure Winds Precip Visibility


Weather for websites

WeatherForYou.com, LLC is not responsible for any damages or problems caused by this service. Current weather conditions are obtained from the closest station including government and personal stations which may have varying degrees of accuracy. Weather forecasts are derived from the NOAA NDFD. Like all things, this site belongs to Jesus Christ... He just trusts me to maintain it. If you have any questions or comments email webmaster@weatherforyou.com

Copyright © 2014, WeatherForYou.com LLC. All rights reserved.